Change the Weather History Date:

Monday, October 22, 2012

  Actual Average Record
Temperature  
Mean Temperature 81 °F -  
Max Temperature 87 °F 88 °F 91 °F (1997)
Min Temperature 75 °F 75 °F 71 °F (2013)
Cooling Degree Days 16    
Growing Degree Days 31 (Base 50)    
Moisture  
Dew Point 74 °F    
Average Humidity 84    
Maximum Humidity 95    
Minimum Humidity 62    
Precipitation  
Precipitation 0.04 in 0.30 in - ()
Sea Level Pressure  
Sea Level Pressure 29.84 in    
Wind  
Wind Speed 3 mph ()    
Max Wind Speed 9 mph    
Max Gust Speed -    
Visibility 4.5 miles    
Events Rain    
Averages and records for this station are not official NWS values.
T = Trace of Precipitation, MM = Missing Value Source: Averaged Metar Reports

Daily Weather History Graph

Daily Weather History Graph

Search for Another Location

Airport or City:

Trip Planner

Search our weather history database for the weather conditions in past years. The results will help you decide how hot, cold, wet, or windy it might be!

Date:

Astronomy

Oct. 22, 2012 Rise Set
Actual Time 6:14 AM ICT 6:08 PM ICT
Civil Twilight 5:52 AM ICT 6:29 PM ICT
Nautical Twilight 5:28 AM ICT 6:53 PM ICT
Astronomical Twilight 5:03 AM ICT 7:18 PM ICT
Moon 12:38 PM ICT (10/22) No Moon Set
Length of Visible Light 12h 36m
Length of Day
11h 53m
Waxing Crescent, 51% of the Moon is Illuminated
Oct 22
Waxing Crescent
Oct 30
Full
Nov 7
Last Quarter
Nov 14
New
Nov 20
First Quarter

Hourly Weather History & Observations

Time (ICT) Temp. Heat Index Dew Point Humidity Pressure Visibility Wind Dir Wind Speed Gust Speed Precip Events Conditions
12:00 AM 77.0 °F - 73.4 °F 89% 29.86 in 5.0 mi Variable 3.5 mph - N/A   Mostly Cloudy
12:30 AM 77.0 °F - 73.4 °F 89% 29.86 in 5.0 mi Calm Calm - N/A   Scattered Clouds
1:00 AM 77 °F - 76 °F 95% 29.83 in 6 mi Calm Calm - -   Scattered Clouds
1:00 AM 75.2 °F - 73.4 °F 94% 29.86 in 5.0 mi Calm Calm - N/A   Scattered Clouds
1:30 AM 75.2 °F - 73.4 °F 94% 29.83 in 5.0 mi Calm Calm - N/A   Scattered Clouds
2:00 AM 77.0 °F - 73.4 °F 89% 29.83 in 5.0 mi Variable 2.3 mph - N/A   Scattered Clouds
2:30 AM 77.0 °F - 73.4 °F 89% 29.83 in 5.0 mi Calm Calm - N/A   Scattered Clouds
3:00 AM 77.0 °F - 75.2 °F 94% 29.80 in 5.0 mi ESE 3.5 mph - N/A   Scattered Clouds
3:30 AM 77.0 °F - 73.4 °F 89% 29.80 in 5.0 mi ESE 3.5 mph - N/A   Scattered Clouds
4:00 AM 77.0 °F - 73.4 °F 89% 29.80 in 5.0 mi SE 3.5 mph - N/A   Scattered Clouds
4:30 AM 77.0 °F - 73.4 °F 89% 29.80 in 5.0 mi SE 3.5 mph - N/A   Scattered Clouds
5:30 AM 77.0 °F - 73.4 °F 89% 29.83 in 5.0 mi ESE 4.6 mph - N/A   Scattered Clouds
6:00 AM 77.0 °F - 73.4 °F 89% 29.83 in 5.0 mi Calm Calm - N/A   Mostly Cloudy
6:30 AM 77.0 °F - 73.4 °F 89% 29.86 in 3.1 mi East 3.5 mph - N/A   Mostly Cloudy
7:00 AM 76 °F - 75 °F 94% 29.83 in 4 mi Calm Calm - -   Mist
7:00 AM 77.0 °F - 73.4 °F 89% 29.86 in 3.1 mi ESE 3.5 mph - N/A   Mostly Cloudy
7:30 AM 78.8 °F - 75.2 °F 89% 29.89 in 3.7 mi East 4.6 mph - N/A   Mostly Cloudy
8:00 AM 80.6 °F 86.2 °F 75.2 °F 84% 29.89 in 3.7 mi East 4.6 mph - N/A   Mostly Cloudy
8:30 AM 82.4 °F 89.5 °F 75.2 °F 79% 29.89 in 4.3 mi East 8.1 mph - N/A   Mostly Cloudy
9:00 AM 82.4 °F 89.5 °F 75.2 °F 79% 29.92 in 4.3 mi East 5.8 mph - N/A   Mostly Cloudy
9:30 AM 82.4 °F 88.2 °F 73.4 °F 74% 29.92 in 4.3 mi ENE 6.9 mph - N/A   Mostly Cloudy
10:00 AM 82.4 °F 88.2 °F 73.4 °F 74% 29.92 in 4.3 mi ENE 8.1 mph - N/A   Mostly Cloudy
10:30 AM 84.2 °F 90.9 °F 73.4 °F 70% 29.89 in 4.3 mi East 8.1 mph - N/A   Mostly Cloudy
11:00 AM 84.2 °F 90.9 °F 73.4 °F 70% 29.89 in 5.0 mi East 8.1 mph - N/A   Mostly Cloudy
11:30 AM 84.2 °F 90.9 °F 73.4 °F 70% 29.89 in 5.0 mi East 8.1 mph - N/A   Mostly Cloudy
12:00 PM 86.0 °F 93.4 °F 73.4 °F 66% 29.86 in 5.0 mi East 9.2 mph - N/A   Mostly Cloudy
12:30 PM 84.2 °F 90.9 °F 73.4 °F 70% 29.86 in 5.0 mi East 8.1 mph - N/A   Mostly Cloudy
1:00 PM 86.0 °F 93.4 °F 73.4 °F 66% 29.83 in 5.0 mi East 8.1 mph - N/A   Mostly Cloudy
1:30 PM 86.0 °F 91.8 °F 71.6 °F 62% 29.83 in 5.0 mi East 9.2 mph - N/A   Mostly Cloudy
2:00 PM 86.0 °F 93.4 °F 73.4 °F 66% 29.80 in 5.0 mi East 6.9 mph - N/A   Mostly Cloudy
2:30 PM 86.0 °F 93.4 °F 73.4 °F 66% 29.80 in 5.0 mi East 6.9 mph - N/A   Mostly Cloudy
3:00 PM 86.0 °F 93.4 °F 73.4 °F 66% 29.77 in 5.0 mi East 6.9 mph - N/A   Mostly Cloudy
3:30 PM 84.2 °F 90.9 °F 73.4 °F 70% 29.77 in 5.0 mi ESE 3.5 mph - N/A   Mostly Cloudy
4:00 PM 82.4 °F 88.2 °F 73.4 °F 74% 29.80 in 4.3 mi Calm Calm - N/A   Mostly Cloudy
4:30 PM 78.8 °F - 75.2 °F 89% 29.80 in 4.3 mi East 6.9 mph - N/A Rain Light Rain
5:00 PM 77.0 °F - 75.2 °F 94% 29.80 in 4.3 mi Variable 2.3 mph - N/A Rain Light Rain
5:30 PM 78.8 °F - 75.2 °F 89% 29.80 in 4.3 mi Calm Calm - N/A   Mostly Cloudy
6:00 PM 78.8 °F - 75.2 °F 89% 29.80 in 4.3 mi Calm Calm - N/A   Mostly Cloudy
6:30 PM 78.8 °F - 75.2 °F 89% 29.80 in 4.3 mi Variable 2.3 mph - N/A   Mostly Cloudy
7:00 PM 79 °F - 76 °F 87% 29.78 in 4 mi Calm Calm - -   Mist
7:00 PM 78.8 °F - 75.2 °F 89% 29.83 in 4.3 mi Variable 2.3 mph - N/A   Mostly Cloudy
7:30 PM 77.0 °F - 75.2 °F 94% 29.83 in 3.7 mi Calm Calm - N/A   Mostly Cloudy
8:00 PM 77.0 °F - 75.2 °F 94% 29.83 in 3.7 mi Calm Calm - N/A   Mostly Cloudy
8:30 PM 77.0 °F - 75.2 °F 94% 29.86 in 4.3 mi Calm Calm - N/A   Mostly Cloudy
9:00 PM 77.0 °F - 75.2 °F 94% 29.86 in 4.3 mi Calm Calm - N/A   Mostly Cloudy
9:30 PM 77.0 °F - 75.2 °F 94% 29.86 in 4.3 mi Calm Calm - N/A   Mostly Cloudy
10:00 PM 77.0 °F - 75.2 °F 94% 29.89 in 4.3 mi Calm Calm - N/A   Mostly Cloudy
10:30 PM 77.0 °F - 75.2 °F 94% 29.86 in 4.3 mi Calm Calm - N/A   Mostly Cloudy
11:00 PM 77.0 °F - 75.2 °F 94% 29.86 in 4.3 mi Calm Calm - N/A   Mostly Cloudy
11:30 PM 77.0 °F - 75.2 °F 94% 29.86 in 4.3 mi Calm Calm - N/A   Mostly Cloudy